{"data":{"norad_id":55960,"intl_designator":"2023-037AY","name":"STARLINK-5938","alt_names":[],"object_type":"PAYLOAD","status":"ACTIVE","operator":null,"country":"US","launch_date":"2023-03-17","launch_site_code":"AFWTR","launch_vehicle":null,"mission":null,"orbit_class":"UNKNOWN","rcs_meters":null,"size_class":null,"mass_kg":null,"dimensions":null,"purposes":["comms"],"wikipedia_slug":null,"has_3d_model":false,"image_url":null,"decayed_at":null,"tle_current":{"epoch":"2026-05-25T05:02:47.532768Z","epoch_age_seconds":56610,"freshness":"FRESH","line1":"1 55960U 23037AY  26145.21027237  .00000486  00000+0  48511-4 0  9992","line2":"2 55960  70.0001  71.5677 0003045 269.1347  90.9463 14.98332311175933","mean_motion":14.98332311,"eccentricity":0.0003045,"inclination_deg":70.0001,"raan_deg":71.5677,"arg_perigee_deg":269.1347,"mean_anomaly_deg":90.9463,"bstar":4.8511e-5,"rev_number":17593,"period_min":96.106850892038,"perigee_km":569.93241281757,"apogee_km":574.1650759359,"semimajor_km":6950.1857443767,"source":"CELESTRAK","updated_at":"2026-05-25T13:38:17.920236Z"}}}